GFSNGP_925_temp_108.txt.gz
Temp
12 16 19 16 17 18 17 18 17 15 13 11 10 7 6 6 6 5 5 4 4 4 4 4 3 3 3 3 4 6 10 12 14 15 15 16 16 16 15 14 14 14 14 13
10 14 15 12 17 18 17 16 15 13 11 10 8 7 6 5 4 3 3 3 2 2 2 2 3 2 2 2 2 3 4 4 7 12 14 14 14 14 14 13 13 13 13 13
14 17 16 14 16 15 14 13 12 11 10 9 6 4 3 3 3 2 2 2 1 1 1 0 2 2 1 1 1 2 2 2 3 5 7 11 13 13 13 13 13 13 13 12
13 15 12 13 16 14 12 12 12 10 8 6 4 3 3 2 2 1 2 1 1 -0 -0 -0 0 1 1 1 1 0 1 1 2 2 3 3 6 8 9 10 8 7 7 7
14 14 14 14 12 11 12 9 9 10 10 7 5 5 3 2 1 1 1 1 0 -0 -1 -0 -1 0 0 0 0 -0 -0 -0 1 1 1 1 0 1 2 3 3 1 1 1
15 14 12 9 9 12 13 8 7 9 8 8 7 8 3 1 0 0 -0 4 3 2 1 -0 -1 -1 -0 -1 -1 -1 -1 -1 0 0 0 -0 0 -0 -1 0 -0 0 -0 -1
14 13 10 7 9 12 11 7 5 7 7 5 4 2 1 0 0 -0 -0 1 4 3 1 1 -0 -1 -1 -1 -1 -2 -1 -1 -1 -0 -0 0 0 -0 -1 0 -0 -1 -1 -1
11 11 9 6 9 8 5 4 5 5 5 5 4 2 2 1 1 2 2 3 4 3 2 0 -0 -0 -0 -1 -1 -2 -2 -3 -3 -2 -2 -1 -0 -0 -0 -1 -1 -1 -2 -2
7 6 5 5 4 4 5 4 4 5 5 5 4 3 3 3 3 3 3 3 3 2 2 0 -1 -1 -1 -1 -1 -2 -2 -4 -4 -4 -4 -4 -3 -3 -2 -1 -1 -2 -2 -3
7 5 5 5 5 5 5 5 5 5 5 6 5 5 4 4 3 3 2 2 2 1 1 -1 -2 -2 -2 -2 -1 -1 -1 -2 -4 -5 -6 -5 -5 -5 -5 -4 -4 -4 -3 -4
6 6 5 4 4 4 4 5 6 6 5 5 5 5 4 3 2 2 1 1 0 -0 -1 -2 -3 -4 -4 -3 -3 -1 -2 -2 -2 -4 -5 -6 -7 -6 -6 -6 -5 -5 -6 -5
6 4 5 3 4 4 4 4 4 4 5 4 4 3 3 1 1 0 -0 -1 -2 -2 -3 -4 -5 -5 -5 -5 -4 -4 -3 -3 -3 -3 -4 -5 -6 -7 -7 -7 -7 -6 -6 -6
4 3 3 2 3 4 4 3 4 3 3 3 2 1 1 -0 -1 -1 -2 -2 -3 -4 -5 -5 -6 -7 -6 -5 -5 -4 -5 -4 -4 -4 -4 -4 -4 -6 -7 -7 -8 -7 -7 -6
4 4 3 4 3 4 4 4 3 2 1 1 0 0 -1 -2 -3 -4 -4 -4 -4 -5 -6 -7 -7 -8 -7 -6 -5 -5 -5 -5 -5 -5 -5 -5 -5 -5 -5 -6 -7 -8 -8 -7
3 3 3 3 3 3 4 4 3 1 0 -1 -1 -2 -2 -3 -4 -5 -6 -7 -6 -7 -8 -8 -9 -9 -8 -7 -5 -6 -6 -5 -5 -5 -5 -5 -5 -5 -6 -6 -7 -7 -7 -7
4 3 3 3 3 2 2 2 1 -1 -2 -3 -3 -4 -3 -4 -5 -7 -7 -8 -9 -9 -9 -10 -10 -10 -10 -8 -7 -6 -6 -6 -6 -5 -5 -5 -6 -6 -6 -7 -8 -9 -9 -9
4 4 3 2 1 0 -1 -1 -2 -3 -4 -5 -6 -7 -7 -6 -7 -8 -9 -9 -10 -10 -11 -11 -11 -10 -10 -8 -7 -6 -6 -6 -6 -6 -6 -6 -6 -7 -7 -8 -9 -10 -10 -10
4 3 3 2 1 -1 -2 -3 -4 -5 -7 -8 -9 -10 -10 -10 -10 -10 -11 -10 -10 -10 -11 -11 -11 -10 -10 -9 -8 -7 -7 -7 -7 -7 -7 -8 -8 -8 -8 -8 -9 -10 -10 -10
1 0 -0 -0 -1 -2 -3 -5 -7 -8 -9 -10 -10 -11 -12 -12 -12 -11 -10 -10 -11 -10 -12 -11 -11 -10 -10 -9 -8 -8 -8 -8 -8 -8 -8 -8 -9 -9 -9 -9 -9 -10 -10 -11
-1 -2 -2 -3 -3 -4 -6 -7 -8 -10 -11 -10 -11 -11 -11 -12 -12 -11 -11 -12 -12 -12 -12 -11 -12 -12 -11 -10 -9 -9 -9 -8 -8 -9 -9 -9 -9 -10 -10 -10 -10 -10 -11 -12
-4 -6 -7 -8 -10 -10 -10 -10 -11 -11 -12 -11 -12 -12 -12 -11 -11 -11 -10 -9 -12 -11 -11 -11 -13 -14 -12 -11 -10 -10 -10 -10 -10 -10 -10 -10 -10 -10 -11 -11 -11 -12 -12 -12
-7 -9 -9 -9 -9 -10 -10 -10 -11 -11 -12 -12 -12 -11 -11 -10 -10 -11 -12 -12 -11 -12 -12 -13 -14 -14 -13 -12 -11 -11 -11 -11 -11 -11 -11 -11 -11 -11 -11 -12 -12 -13 -13 -13
-8 -8 -9 -9 -8 -9 -10 -11 -11 -11 -11 -11 -12 -11 -11 -10 -9 -9 -10 -12 -13 -13 -13 -14 -14 -14 -13 -13 -13 -12 -12 -12 -12 -13 -13 -13 -13 -13 -13 -13 -13 -14 -14 -14
-7 -7 -8 -8 -9 -9 -9 -10 -10 -10 -10 -11 -11 -11 -11 -10 -10 -10 -12 -13 -13 -13 -14 -14 -14 -14 -14 -13 -13 -13 -13 -13 -14 -14 -13 -14 -14 -14 -14 -14 -14 -15 -15 -15
-7 -7 -8 -8 -7 -6 -7 -8 -8 -9 -8 -8 -9 -10 -10 -10 -11 -12 -12 -12 -13 -13 -13 -14 -14 -14 -14 -14 -14 -14 -14 -14 -14 -15 -15 -15 -14 -15 -15 -15 -16 -16 -16 -16
-6 -6 -6 -6 -6 -5 -5 -5 -5 -5 -6 -6 -7 -9 -10 -11 -11 -12 -12 -13 -13 -13 -13 -13 -14 -14 -14 -14 -15 -14 -15 -15 -14 -15 -15 -15 -15 -15 -15 -16 -16 -16 -16 -17
-5 -5 -5 -5 -5 -5 -6 -7 -8 -7 -8 -9 -8 -9 -10 -11 -11 -12 -12 -12 -12 -13 -13 -13 -13 -14 -14 -15 -15 -15 -15 -15 -15 -15 -16 -16 -16 -16 -16 -16 -17 -17 -17 -18

GFSNGP_925_temp_111.txt.gz
Temp
11 13 11 10 11 11 12 15 12 10 9 8 6 6 5 5 4 3 3 3 2 2 2 2 2 3 2 2 2 2 3 5 6 10 14 15 15 15 15 14 14 14 14 13
10 12 12 11 13 13 12 11 11 10 8 6 5 4 4 3 3 3 2 2 2 1 1 1 1 2 2 2 1 1 2 3 3 5 7 11 14 13 14 14 14 13 13 13
10 12 14 11 11 11 10 10 10 9 9 6 4 3 2 2 2 2 2 1 1 0 0 0 0 0 1 1 1 1 1 1 2 2 2 2 6 11 12 12 13 12 12 12
11 13 12 9 11 10 8 8 9 8 6 5 3 2 2 1 1 1 1 2 1 -0 -0 -0 -0 -0 0 0 0 0 -0 0 1 1 1 1 1 1 4 6 7 8 7 7
11 11 11 10 9 7 9 7 7 7 6 5 4 5 2 1 0 0 1 1 1 1 -0 -1 -1 -1 -1 -1 -1 -1 -1 -1 -0 0 0 0 0 -0 -1 0 -0 -0 1 3
11 11 10 8 7 8 9 6 5 6 5 4 5 4 2 0 -0 0 0 2 1 1 0 -1 -1 -1 -1 -2 -2 -2 -2 -2 -1 0 0 -0 -0 0 -0 -1 -1 -2 -2 -1
10 9 8 5 6 9 9 6 5 5 4 3 3 1 1 0 -0 1 1 3 2 0 -1 -1 -1 -1 -1 -1 -2 -3 -3 -3 -2 -1 -1 -1 -1 1 0 -1 -0 -2 -2 -3
8 9 7 5 7 6 5 4 4 4 4 3 2 2 2 0 1 2 1 2 2 0 -1 -2 -3 -2 -2 -2 -2 -3 -4 -4 -3 -3 -3 -2 -1 -2 -1 -1 -1 -2 -2 -3
6 5 4 4 4 3 3 3 3 4 5 4 3 3 2 1 1 1 1 0 0 -1 -2 -3 -4 -4 -4 -3 -2 -2 -3 -4 -5 -5 -4 -4 -4 -3 -3 -3 -3 -3 -4 -4
6 4 4 4 4 4 4 5 5 4 4 5 4 3 1 1 0 -0 -0 -1 -2 -3 -4 -4 -5 -5 -5 -4 -3 -2 -2 -4 -5 -6 -6 -6 -6 -5 -5 -5 -5 -5 -5 -5
5 4 4 4 3 3 4 4 4 4 3 2 2 1 0 -0 -1 -1 -2 -3 -4 -4 -5 -6 -6 -6 -6 -5 -4 -4 -3 -3 -4 -5 -6 -7 -7 -6 -6 -6 -5 -5 -5 -5
4 4 3 2 3 3 3 3 2 2 2 1 1 0 -1 -2 -2 -2 -3 -4 -5 -6 -6 -7 -7 -8 -7 -6 -5 -5 -4 -4 -4 -4 -5 -6 -7 -7 -7 -6 -6 -5 -5 -5
3 3 2 2 3 4 2 3 2 1 0 0 -0 -1 -2 -3 -4 -5 -5 -6 -6 -7 -8 -8 -9 -8 -7 -7 -5 -5 -5 -5 -5 -5 -5 -4 -6 -7 -8 -7 -7 -7 -6 -6
3 3 2 2 3 3 4 3 1 -0 -1 -2 -2 -3 -4 -5 -6 -7 -8 -7 -8 -9 -9 -9 -9 -9 -8 -7 -6 -5 -5 -5 -5 -5 -5 -5 -5 -6 -7 -7 -8 -7 -7 -7
3 2 2 2 3 3 3 1 -0 -2 -3 -4 -4 -4 -5 -6 -7 -8 -8 -9 -9 -10 -10 -10 -10 -10 -8 -7 -6 -6 -6 -6 -6 -6 -5 -6 -6 -6 -7 -8 -8 -8 -8 -8
3 2 2 1 0 -0 -1 -1 -3 -4 -5 -6 -7 -7 -6 -7 -8 -9 -9 -10 -10 -11 -11 -11 -10 -10 -9 -8 -7 -7 -6 -6 -6 -6 -6 -6 -7 -7 -8 -9 -10 -9 -9 -9
2 1 1 -1 -2 -2 -3 -4 -5 -6 -7 -8 -8 -9 -9 -8 -9 -10 -10 -10 -11 -11 -11 -11 -11 -10 -9 -9 -8 -8 -7 -7 -7 -7 -7 -7 -7 -8 -8 -9 -10 -10 -10 -10
1 -0 0 -1 -3 -3 -4 -6 -7 -8 -9 -10 -10 -11 -11 -11 -11 -11 -11 -10 -11 -11 -11 -11 -11 -10 -10 -9 -8 -8 -8 -8 -8 -8 -8 -8 -8 -9 -9 -10 -10 -10 -11 -11
-1 -2 -2 -3 -4 -5 -6 -8 -9 -10 -10 -10 -11 -11 -12 -12 -11 -11 -11 -11 -11 -11 -12 -12 -11 -11 -11 -10 -9 -9 -9 -9 -9 -9 -9 -9 -9 -10 -10 -10 -10 -11 -11 -12
-3 -5 -6 -6 -6 -7 -8 -9 -10 -11 -11 -11 -11 -11 -11 -11 -11 -11 -11 -12 -12 -12 -12 -12 -12 -12 -11 -11 -11 -10 -10 -10 -10 -10 -10 -10 -10 -10 -11 -11 -11 -12 -12 -12
-8 -8 -9 -9 -10 -9 -10 -10 -11 -11 -11 -11 -11 -11 -11 -10 -10 -11 -11 -12 -13 -12 -13 -13 -13 -13 -12 -12 -12 -11 -11 -11 -11 -11 -11 -11 -11 -11 -11 -12 -12 -12 -13 -13
-9 -10 -10 -10 -10 -10 -10 -11 -11 -11 -11 -11 -11 -11 -11 -10 -10 -12 -12 -12 -12 -13 -13 -13 -13 -14 -13 -13 -13 -13 -12 -12 -13 -12 -12 -13 -12 -12 -13 -13 -13 -13 -14 -14
-9 -9 -9 -9 -9 -10 -10 -10 -10 -10 -10 -11 -10 -10 -11 -10 -10 -11 -12 -13 -12 -13 -13 -14 -14 -14 -14 -14 -13 -13 -14 -13 -13 -14 -14 -14 -14 -14 -14 -14 -14 -14 -14 -15
-9 -9 -8 -8 -9 -9 -10 -9 -9 -9 -10 -10 -10 -10 -10 -10 -11 -11 -12 -12 -13 -13 -13 -14 -14 -14 -14 -14 -14 -14 -14 -14 -14 -15 -14 -15 -14 -14 -15 -15 -15 -15 -15 -16
-8 -8 -8 -8 -9 -9 -9 -8 -8 -9 -9 -9 -10 -10 -10 -11 -11 -11 -12 -12 -13 -13 -13 -13 -14 -14 -14 -14 -14 -15 -15 -15 -15 -15 -15 -15 -15 -15 -15 -15 -16 -16 -16 -16
-7 -7 -8 -7 -8 -6 -6 -7 -8 -7 -8 -8 -9 -10 -10 -11 -11 -11 -12 -12 -12 -13 -13 -13 -13 -14 -14 -14 -14 -15 -15 -15 -15 -15 -15 -15 -16 -16 -16 -16 -16 -17 -17 -17
-7 -7 -7 -6 -6 -6 -6 -7 -8 -9 -9 -9 -10 -10 -11 -11 -11 -11 -12 -12 -12 -13 -13 -13 -13 -14 -14 -14 -14 -15 -15 -15 -15 -15 -16 -16 -16 -16 -16 -16 -17 -17 -17 -18

GFSNGP_925_temp_114.txt.gz
Temp
11 10 10 9 11 11 11 10 10 8 7 6 5 4 3 4 3 3 3 2 2 2 1 1 1 1 1 1 1 1 2 2 3 4 6 12 13 14 14 14 15 15 15 15
10 9 10 9 9 9 10 9 8 8 6 4 3 3 3 3 3 2 2 2 1 1 1 0 0 0 0 0 0 1 1 1 2 2 3 4 8 12 13 14 14 14 14 14
10 9 10 9 8 8 8 7 9 9 6 4 3 2 1 1 2 2 2 1 1 0 -0 -0 -0 -0 -1 -1 -1 -1 0 0 1 1 2 2 2 4 6 9 11 12 12 12
9 10 9 7 7 8 7 7 6 6 5 3 2 1 1 0 0 0 2 1 0 -1 -1 -1 -1 -0 -1 -1 -2 -2 -2 -1 -0 -0 0 1 1 1 -0 1 2 2 4 5
10 10 8 8 6 6 7 6 6 5 5 3 3 4 1 1 0 0 1 0 -1 -1 -2 -2 -2 -1 -1 -2 -2 -2 -3 -3 -2 -0 -1 -0 0 -0 1 0 -0 -1 -1 0
10 10 8 6 5 7 7 6 5 4 4 3 4 3 1 1 0 0 1 -0 -1 -2 -3 -3 -3 -2 -2 -2 -2 -3 -4 -4 -3 -2 -1 -1 -1 -1 -0 0 -1 0 -1 -0
9 9 7 4 6 8 8 5 4 4 3 2 1 1 0 0 -0 -0 0 0 -1 -3 -4 -4 -4 -3 -3 -2 -2 -3 -4 -4 -3 -3 -3 -3 -2 -0 -0 0 -0 -1 -1 -1
8 7 7 3 6 6 4 3 3 4 3 2 2 2 1 -1 -1 -1 -1 -2 -3 -3 -4 -5 -5 -4 -4 -3 -2 -3 -3 -4 -5 -4 -4 -4 -3 -3 -2 -2 -2 -3 -2 -3
6 5 3 3 3 3 3 3 3 3 4 3 2 0 -0 -1 -1 -2 -3 -3 -4 -5 -5 -6 -6 -6 -5 -4 -4 -3 -3 -4 -5 -5 -6 -5 -5 -5 -4 -4 -4 -4 -4 -4
4 4 4 3 3 4 3 3 2 2 2 2 1 -0 -1 -2 -2 -3 -4 -5 -5 -6 -6 -7 -7 -7 -6 -5 -4 -4 -4 -4 -5 -6 -6 -6 -6 -6 -5 -5 -5 -5 -4 -4
4 3 3 3 2 3 2 2 2 1 1 0 -0 -1 -2 -2 -3 -4 -5 -6 -6 -7 -7 -8 -8 -7 -6 -6 -5 -5 -5 -4 -5 -5 -6 -7 -7 -6 -6 -5 -5 -5 -5 -4
4 4 3 2 3 2 1 0 0 0 -1 -1 -2 -2 -4 -5 -6 -5 -6 -7 -8 -8 -8 -9 -9 -8 -7 -6 -6 -6 -5 -5 -5 -5 -6 -6 -7 -7 -6 -6 -6 -5 -5 -5
3 3 2 2 2 2 0 0 -1 -1 -1 -2 -3 -4 -5 -6 -6 -7 -7 -8 -9 -9 -9 -10 -10 -9 -8 -6 -6 -6 -6 -6 -5 -5 -6 -6 -6 -7 -8 -7 -7 -7 -6 -6
3 2 2 2 1 2 0 -1 -2 -3 -4 -4 -4 -5 -6 -7 -7 -8 -9 -9 -9 -10 -10 -10 -10 -10 -8 -7 -6 -6 -6 -6 -6 -6 -6 -6 -7 -7 -7 -8 -8 -8 -8 -7
2 3 2 1 0 0 -1 -2 -3 -4 -5 -6 -6 -6 -7 -8 -8 -9 -10 -10 -10 -11 -11 -10 -11 -10 -9 -8 -7 -7 -7 -7 -6 -6 -6 -7 -7 -7 -8 -8 -9 -9 -8 -8
2 2 -0 -1 -2 -2 -3 -4 -5 -6 -7 -7 -8 -7 -8 -9 -10 -10 -10 -11 -11 -12 -12 -11 -11 -11 -9 -8 -8 -7 -7 -7 -7 -7 -7 -8 -8 -8 -9 -10 -10 -10 -10 -10
1 -0 -1 -2 -3 -4 -5 -6 -7 -7 -8 -8 -9 -9 -9 -10 -10 -11 -11 -11 -11 -11 -12 -11 -11 -11 -10 -9 -9 -8 -8 -8 -8 -8 -8 -8 -9 -9 -9 -10 -10 -11 -11 -11
0 0 -1 -3 -4 -5 -6 -7 -8 -8 -10 -10 -10 -10 -11 -11 -12 -11 -11 -11 -11 -12 -12 -12 -12 -11 -10 -10 -10 -9 -9 -9 -9 -9 -9 -9 -9 -9 -10 -10 -11 -11 -12 -12
-2 -3 -3 -4 -5 -6 -7 -8 -9 -10 -10 -10 -10 -11 -12 -12 -12 -12 -12 -11 -12 -13 -13 -12 -12 -12 -11 -11 -11 -10 -10 -10 -10 -10 -10 -10 -10 -10 -10 -11 -11 -11 -12 -12
-5 -5 -6 -6 -6 -7 -9 -10 -10 -10 -11 -11 -11 -11 -11 -11 -11 -11 -12 -12 -13 -13 -13 -13 -12 -12 -12 -12 -12 -11 -11 -11 -11 -11 -11 -11 -11 -11 -11 -12 -12 -12 -13 -13
-8 -8 -8 -8 -9 -9 -9 -9 -10 -11 -11 -11 -11 -11 -11 -10 -11 -11 -12 -13 -13 -13 -13 -13 -13 -13 -13 -13 -13 -13 -12 -12 -13 -12 -12 -12 -12 -12 -12 -13 -13 -13 -13 -14
-9 -10 -10 -10 -10 -10 -10 -10 -10 -10 -11 -10 -10 -11 -10 -10 -11 -12 -12 -12 -13 -13 -13 -13 -14 -14 -14 -13 -14 -13 -13 -13 -13 -13 -14 -14 -13 -14 -13 -13 -14 -14 -14 -15
-9 -9 -10 -10 -10 -10 -10 -10 -10 -10 -10 -9 -10 -10 -10 -10 -10 -12 -13 -12 -13 -13 -13 -14 -14 -14 -14 -14 -14 -14 -14 -14 -14 -14 -14 -15 -15 -15 -15 -15 -15 -15 -15 -15
-9 -9 -9 -9 -10 -10 -11 -9 -9 -9 -9 -10 -10 -10 -11 -11 -11 -11 -12 -12 -13 -13 -13 -13 -14 -14 -14 -14 -14 -15 -15 -15 -15 -15 -15 -15 -15 -15 -15 -15 -15 -16 -16 -16
-9 -9 -9 -9 -10 -9 -8 -8 -9 -9 -9 -10 -10 -10 -10 -11 -11 -11 -12 -12 -12 -13 -13 -13 -14 -14 -14 -14 -15 -15 -15 -15 -15 -15 -15 -15 -16 -16 -16 -16 -16 -16 -17 -17
-9 -9 -8 -8 -8 -8 -7 -7 -8 -8 -8 -9 -9 -9 -10 -11 -11 -11 -12 -12 -12 -13 -13 -13 -13 -14 -14 -14 -15 -15 -15 -15 -15 -15 -16 -16 -16 -16 -16 -16 -17 -17 -17 -17
-8 -7 -8 -8 -8 -7 -7 -7 -8 -9 -9 -9 -9 -10 -10 -11 -11 -11 -12 -12 -12 -13 -13 -13 -13 -14 -14 -14 -14 -15 -15 -15 -15 -16 -16 -16 -16 -16 -16 -17 -17 -17 -17 -18

GFSNGP_925_temp_117.txt.gz
Temp
8 8 9 9 12 10 11 9 9 7 6 4 4 3 3 3 3 3 3 2 1 1 1 0 1 0 -0 -0 -0 -0 0 1 1 2 2 3 6 10 12 13 14 14 13 13
9 9 9 7 8 8 8 8 7 7 5 3 2 2 2 2 2 2 2 1 0 0 -0 -0 -0 -0 -1 -1 -1 -1 -1 -1 0 1 1 1 2 4 6 8 11 13 13 13
10 10 10 8 7 7 7 7 8 7 5 3 2 2 1 1 1 2 0 -0 -1 -1 -1 -2 -1 -1 -1 -2 -2 -2 -2 -2 -1 -1 0 0 1 1 2 1 2 5 7 10
9 10 8 6 6 6 6 6 6 5 3 2 1 1 1 0 0 1 -1 -2 -2 -3 -3 -3 -2 -2 -1 -2 -3 -3 -3 -3 -2 -2 -1 -1 -0 -1 0 1 1 -0 1 1
10 9 8 7 6 5 6 5 5 4 4 2 2 2 1 1 0 -0 -1 -2 -3 -4 -4 -4 -4 -3 -2 -2 -3 -3 -4 -4 -4 -3 -2 -2 -2 -1 -1 -0 0 0 -0 2
9 10 8 5 4 5 6 5 4 4 3 2 3 2 0 -0 -1 -2 -1 -2 -4 -4 -5 -5 -4 -3 -3 -2 -3 -4 -5 -5 -4 -4 -4 -3 -2 -2 -2 -1 -0 0 -0 -1
9 8 6 4 4 5 7 5 4 3 2 1 0 -0 -1 -2 -3 -3 -3 -3 -4 -5 -5 -6 -5 -4 -4 -4 -3 -4 -5 -5 -4 -4 -4 -4 -3 -2 -2 -2 -2 -2 -1 -2
7 7 6 3 5 6 4 3 3 3 2 2 0 -1 -2 -4 -4 -4 -4 -5 -5 -5 -6 -7 -7 -6 -6 -5 -4 -3 -4 -4 -5 -5 -6 -5 -4 -4 -4 -3 -3 -3 -3 -3
5 4 3 3 3 2 3 2 1 2 2 1 -1 -2 -2 -3 -3 -4 -5 -6 -6 -6 -7 -7 -7 -7 -7 -7 -5 -4 -4 -5 -5 -5 -6 -6 -6 -5 -5 -4 -4 -4 -4 -4
4 3 3 2 2 2 1 0 0 1 0 -0 -1 -2 -3 -4 -5 -5 -6 -7 -7 -7 -8 -8 -8 -8 -7 -7 -6 -5 -5 -5 -5 -6 -6 -6 -6 -6 -5 -5 -5 -5 -4 -4
3 3 3 2 2 1 1 0 0 -0 -1 -2 -3 -4 -5 -5 -6 -6 -7 -8 -8 -8 -8 -9 -9 -8 -7 -7 -7 -6 -6 -6 -5 -6 -6 -6 -6 -6 -6 -5 -5 -5 -5 -5
3 3 3 2 2 1 -0 -1 -1 -2 -2 -3 -4 -5 -6 -6 -7 -7 -8 -9 -9 -9 -9 -10 -9 -9 -8 -7 -7 -7 -6 -6 -6 -6 -6 -6 -6 -6 -7 -7 -6 -6 -6 -6
3 3 2 2 0 -0 -1 -2 -2 -3 -3 -4 -5 -6 -6 -7 -8 -8 -9 -9 -10 -10 -10 -10 -10 -9 -8 -7 -7 -7 -7 -7 -7 -7 -7 -7 -7 -7 -7 -6 -7 -8 -8 -7
2 2 1 2 -1 -1 -1 -2 -4 -5 -5 -5 -6 -6 -7 -8 -8 -9 -10 -10 -10 -11 -11 -11 -10 -10 -9 -8 -7 -7 -7 -7 -7 -7 -7 -7 -7 -8 -8 -9 -9 -9 -9 -9
2 2 0 0 -1 -2 -3 -3 -4 -5 -6 -6 -7 -7 -8 -9 -9 -10 -10 -10 -11 -11 -12 -11 -11 -10 -9 -9 -8 -8 -8 -8 -7 -7 -7 -8 -8 -8 -9 -9 -10 -10 -10 -9
2 0 -0 -1 -3 -3 -4 -4 -5 -6 -7 -7 -7 -8 -9 -10 -10 -11 -11 -11 -12 -12 -12 -12 -12 -11 -10 -9 -9 -9 -8 -8 -8 -8 -8 -8 -8 -9 -10 -10 -10 -11 -11 -11
-0 -1 -2 -3 -3 -4 -4 -5 -6 -7 -8 -8 -9 -9 -9 -10 -11 -11 -11 -11 -12 -12 -12 -12 -12 -12 -11 -10 -10 -9 -9 -9 -9 -9 -9 -9 -9 -10 -10 -10 -11 -12 -12 -12
0 -0 -1 -2 -4 -5 -6 -6 -7 -8 -9 -10 -10 -10 -11 -11 -12 -12 -11 -12 -11 -11 -12 -12 -12 -12 -11 -11 -11 -10 -10 -10 -10 -10 -10 -10 -10 -10 -11 -11 -11 -12 -12 -13
-1 -3 -4 -4 -5 -6 -7 -8 -9 -10 -10 -10 -10 -11 -12 -11 -11 -11 -12 -12 -12 -13 -13 -13 -13 -13 -12 -12 -12 -11 -11 -11 -11 -11 -11 -11 -10 -11 -11 -11 -12 -12 -13 -13
-4 -5 -5 -6 -6 -7 -9 -9 -10 -10 -10 -10 -10 -11 -11 -11 -11 -11 -12 -12 -12 -13 -13 -13 -14 -13 -13 -13 -13 -13 -13 -12 -12 -12 -12 -12 -12 -12 -12 -12 -13 -13 -13 -14
-6 -6 -7 -7 -8 -8 -8 -9 -9 -9 -10 -10 -10 -11 -11 -10 -11 -12 -12 -12 -12 -13 -13 -14 -14 -14 -14 -14 -14 -14 -14 -14 -13 -13 -13 -13 -13 -13 -13 -13 -13 -14 -14 -14
-8 -9 -9 -9 -9 -9 -9 -9 -9 -9 -10 -10 -11 -11 -11 -11 -11 -11 -11 -12 -12 -13 -13 -14 -14 -14 -14 -14 -14 -14 -14 -14 -14 -14 -14 -14 -14 -14 -14 -14 -14 -15 -15 -15
-9 -9 -9 -10 -9 -9 -9 -10 -10 -10 -10 -10 -10 -10 -10 -10 -11 -11 -11 -11 -12 -13 -13 -13 -14 -14 -14 -14 -15 -15 -15 -15 -15 -15 -15 -15 -15 -15 -15 -15 -15 -15 -16 -16
-9 -9 -9 -9 -9 -10 -11 -10 -10 -10 -10 -10 -10 -10 -10 -10 -10 -11 -11 -12 -12 -13 -13 -13 -14 -14 -14 -14 -15 -15 -15 -15 -15 -15 -15 -16 -16 -16 -16 -16 -16 -16 -16 -17
-9 -9 -9 -10 -10 -10 -9 -9 -9 -9 -10 -9 -9 -10 -10 -10 -11 -11 -11 -12 -12 -13 -13 -13 -13 -14 -14 -14 -15 -15 -15 -15 -15 -15 -15 -16 -16 -16 -16 -16 -17 -17 -17 -17
-9 -10 -9 -9 -8 -8 -8 -9 -9 -8 -8 -8 -8 -9 -9 -10 -11 -11 -11 -12 -12 -12 -13 -13 -13 -13 -14 -14 -14 -15 -15 -15 -15 -15 -16 -16 -16 -16 -17 -17 -17 -17 -17 -18
-9 -9 -9 -9 -8 -8 -8 -8 -8 -8 -8 -9 -9 -9 -9 -10 -11 -11 -11 -12 -12 -12 -13 -13 -13 -14 -14 -14 -14 -15 -15 -15 -15 -16 -16 -16 -16 -16 -16 -17 -17 -17 -18 -18

GFSNGP_925_temp_120.txt.gz
Temp
8 7 8 7 9 10 9 8 8 6 4 3 3 2 2 2 1 1 1 -0 -0 -0 -0 -1 -1 -1 -1 -1 -1 -1 -1 -0 -0 0 1 1 1 2 4 7 9 11 13 13
8 9 7 6 6 7 8 7 6 5 4 2 2 1 1 1 1 0 -1 -1 -1 -1 -1 -2 -2 -1 -2 -2 -3 -2 -2 -2 -1 -1 -0 -0 -0 0 1 2 5 6 8 8
9 9 11 8 6 6 6 5 7 6 4 2 1 1 0 0 0 -1 -1 -2 -3 -3 -3 -3 -3 -2 -2 -3 -3 -3 -3 -3 -3 -2 -1 -1 -1 -1 -0 -0 1 3 3 3
9 9 8 6 5 6 5 5 5 4 2 2 1 0 -0 -1 -1 -2 -2 -3 -4 -4 -5 -4 -4 -3 -2 -3 -4 -4 -4 -4 -4 -3 -3 -2 -1 -1 -1 -1 -1 -1 -0 1
9 8 7 7 5 5 6 5 4 4 3 2 1 2 -1 -2 -2 -3 -3 -4 -4 -5 -6 -5 -5 -4 -3 -3 -4 -5 -5 -6 -5 -4 -4 -3 -3 -3 -2 -2 -2 -2 -3 -2
9 10 8 5 4 5 5 5 3 3 2 1 3 1 -1 -3 -4 -4 -4 -5 -5 -6 -6 -7 -7 -6 -4 -4 -3 -5 -6 -6 -6 -5 -5 -4 -4 -3 -3 -3 -3 -3 -3 -3
8 8 6 3 4 5 7 4 3 2 0 0 -0 -2 -3 -4 -6 -5 -5 -5 -6 -6 -7 -7 -7 -7 -6 -5 -5 -4 -5 -6 -6 -6 -6 -5 -5 -4 -4 -3 -3 -3 -3 -3
7 7 6 3 5 6 4 2 3 1 0 -1 -2 -2 -3 -6 -6 -6 -6 -6 -7 -7 -7 -8 -8 -8 -7 -7 -6 -5 -5 -6 -6 -7 -6 -6 -5 -5 -5 -5 -4 -4 -4 -4
4 4 2 2 2 2 1 1 0 1 -0 -1 -2 -3 -4 -5 -5 -6 -7 -8 -7 -8 -8 -8 -8 -8 -8 -7 -6 -6 -5 -5 -6 -6 -6 -6 -6 -5 -5 -5 -5 -5 -4 -4
4 3 2 2 1 1 0 -0 -0 -0 -1 -2 -3 -3 -5 -5 -6 -7 -8 -8 -8 -8 -9 -9 -9 -9 -9 -8 -6 -6 -6 -6 -6 -6 -6 -6 -7 -6 -6 -5 -5 -6 -5 -5
3 3 2 1 1 0 -0 -0 -1 -2 -2 -3 -4 -5 -5 -6 -7 -8 -8 -9 -9 -9 -9 -10 -9 -9 -8 -8 -7 -6 -6 -7 -7 -7 -7 -6 -7 -7 -7 -7 -7 -6 -7 -7
1 3 2 1 0 -0 -1 -1 -2 -3 -4 -4 -5 -6 -7 -7 -8 -8 -9 -10 -10 -10 -10 -10 -10 -9 -8 -9 -8 -8 -7 -7 -8 -8 -7 -7 -7 -6 -7 -8 -8 -8 -8 -7
3 2 1 0 -1 -1 -2 -2 -3 -4 -5 -6 -6 -7 -7 -8 -8 -9 -10 -10 -11 -11 -11 -11 -10 -10 -9 -9 -9 -9 -9 -9 -8 -8 -8 -8 -8 -9 -9 -7 -8 -9 -9 -9
2 2 1 0 -1 -2 -2 -3 -4 -5 -5 -6 -7 -7 -8 -8 -9 -10 -10 -10 -11 -11 -12 -11 -11 -11 -10 -9 -9 -8 -8 -8 -8 -8 -8 -8 -9 -9 -9 -10 -10 -10 -10 -11
2 2 0 -1 -2 -3 -4 -4 -5 -5 -6 -7 -7 -8 -8 -9 -10 -11 -11 -11 -11 -12 -12 -12 -12 -11 -11 -10 -9 -9 -9 -9 -9 -8 -9 -9 -9 -9 -10 -10 -11 -11 -11 -10
1 -0 -2 -2 -3 -4 -4 -4 -5 -6 -6 -7 -8 -9 -9 -10 -11 -11 -12 -12 -12 -13 -13 -13 -12 -12 -11 -11 -10 -10 -10 -9 -9 -9 -9 -9 -10 -10 -10 -11 -11 -12 -13 -13
-0 -1 -2 -3 -3 -4 -4 -5 -5 -6 -7 -8 -9 -9 -10 -10 -11 -12 -12 -12 -12 -12 -13 -13 -13 -13 -12 -11 -11 -11 -10 -10 -10 -10 -10 -10 -11 -11 -11 -11 -12 -12 -13 -13
0 -0 -1 -2 -3 -5 -6 -6 -7 -8 -9 -9 -10 -10 -10 -10 -12 -12 -12 -12 -11 -12 -13 -13 -13 -13 -13 -12 -12 -12 -12 -11 -11 -11 -11 -11 -11 -11 -11 -12 -12 -13 -13 -14
-1 -2 -3 -3 -4 -5 -6 -8 -8 -9 -9 -10 -10 -10 -11 -11 -11 -11 -12 -12 -12 -12 -13 -13 -13 -14 -13 -13 -13 -13 -13 -13 -12 -12 -12 -12 -12 -12 -12 -12 -13 -13 -14 -14
-3 -4 -4 -5 -5 -6 -8 -8 -9 -10 -10 -10 -11 -11 -11 -11 -11 -11 -12 -12 -12 -13 -13 -14 -14 -14 -14 -14 -14 -14 -14 -14 -14 -13 -13 -13 -13 -13 -13 -13 -13 -14 -14 -15
-5 -5 -6 -6 -7 -7 -7 -8 -9 -10 -10 -11 -10 -11 -11 -11 -11 -11 -12 -12 -12 -13 -13 -14 -14 -14 -14 -14 -14 -14 -15 -15 -14 -14 -14 -14 -14 -14 -14 -14 -14 -15 -15 -15
-8 -8 -8 -8 -9 -9 -9 -9 -9 -10 -10 -10 -11 -11 -11 -11 -11 -11 -11 -12 -12 -13 -13 -14 -14 -14 -14 -14 -15 -15 -15 -15 -15 -15 -15 -15 -15 -15 -15 -15 -15 -15 -16 -16
-8 -8 -9 -9 -9 -9 -10 -10 -9 -9 -9 -10 -10 -10 -10 -11 -10 -11 -11 -11 -12 -12 -13 -13 -13 -14 -14 -14 -14 -15 -15 -15 -15 -16 -16 -16 -16 -16 -16 -16 -16 -16 -16 -16
-9 -9 -9 -9 -9 -10 -11 -10 -9 -9 -10 -10 -10 -10 -10 -10 -10 -10 -11 -11 -12 -12 -13 -13 -13 -13 -14 -14 -14 -15 -15 -15 -15 -16 -16 -16 -16 -16 -17 -17 -17 -17 -17 -17
-8 -9 -9 -10 -10 -9 -8 -9 -9 -9 -9 -9 -9 -9 -10 -10 -10 -10 -11 -11 -12 -12 -12 -13 -13 -13 -14 -14 -14 -14 -15 -15 -15 -16 -16 -16 -16 -16 -16 -17 -17 -17 -17 -17
-10 -10 -9 -9 -8 -8 -8 -9 -8 -8 -9 -8 -8 -8 -9 -9 -10 -11 -11 -11 -12 -12 -12 -12 -13 -13 -13 -14 -14 -14 -14 -15 -15 -15 -16 -16 -16 -16 -17 -17 -17 -17 -17 -18
-9 -9 -9 -9 -9 -8 -8 -8 -8 -7 -7 -8 -8 -9 -9 -10 -10 -11 -11 -11 -11 -12 -12 -12 -13 -13 -13 -14 -14 -14 -14 -15 -15 -15 -16 -16 -16 -16 -16 -17 -17 -17 -18 -18

GFSNGP_925_temp_123.txt.gz
Temp
8 7 7 6 8 9 8 8 8 5 4 3 2 2 2 1 0 1 0 -1 -1 -1 -2 -2 -2 -1 -1 -2 -2 -1 -1 -1 -1 -1 -0 0 -0 0 0 1 1 2 5 7
8 8 7 6 6 6 7 7 5 5 3 2 1 1 1 0 -0 -1 -1 -1 -2 -2 -3 -3 -2 -2 -2 -2 -3 -2 -2 -2 -2 -1 -2 -1 -1 -0 -1 -1 -1 0 0 1
10 9 9 8 5 6 6 6 7 6 4 2 1 0 -0 -1 -1 -2 -2 -2 -3 -3 -4 -4 -4 -3 -2 -3 -3 -3 -4 -3 -3 -2 -2 -2 -2 -2 -1 -1 -2 -2 -2 -1
10 9 9 6 5 5 5 5 5 4 3 2 0 -1 -1 -2 -2 -3 -3 -3 -4 -5 -5 -5 -5 -4 -3 -3 -4 -4 -5 -5 -4 -4 -4 -3 -2 -2 -2 -2 -2 -3 -3 -3
10 9 7 7 5 5 6 5 4 4 3 2 1 2 -1 -2 -3 -4 -4 -4 -5 -5 -6 -6 -6 -4 -4 -4 -4 -5 -6 -6 -5 -5 -5 -4 -4 -3 -3 -3 -3 -3 -3 -3
10 10 9 5 5 5 6 6 3 3 3 3 3 4 -1 -4 -4 -5 -5 -5 -5 -6 -6 -7 -6 -5 -5 -5 -5 -5 -6 -6 -6 -5 -5 -5 -4 -4 -4 -3 -3 -3 -3 -4
9 8 6 4 4 5 7 6 3 2 2 2 1 -1 -3 -4 -5 -6 -6 -5 -6 -6 -6 -7 -6 -6 -6 -5 -5 -5 -5 -6 -6 -6 -6 -5 -5 -5 -5 -4 -4 -4 -4 -4
7 7 7 3 5 6 4 3 3 2 1 -0 -1 -2 -3 -5 -5 -6 -6 -6 -6 -6 -6 -7 -7 -6 -6 -6 -5 -5 -5 -6 -6 -6 -6 -6 -6 -5 -5 -5 -5 -5 -5 -5
6 5 3 2 2 3 3 3 2 1 1 -0 -1 -3 -3 -4 -5 -6 -6 -7 -7 -7 -7 -7 -7 -8 -7 -7 -5 -5 -5 -6 -5 -6 -6 -6 -6 -6 -6 -5 -5 -5 -5 -5
5 3 2 2 2 2 2 1 1 1 0 -0 -2 -3 -4 -4 -5 -6 -7 -7 -7 -7 -7 -8 -8 -8 -8 -7 -6 -5 -5 -6 -5 -6 -6 -6 -6 -6 -7 -6 -6 -6 -6 -6
4 3 2 2 2 1 0 0 -1 -1 -1 -2 -3 -4 -4 -5 -6 -7 -7 -8 -8 -8 -8 -9 -9 -9 -9 -8 -7 -6 -6 -6 -7 -6 -6 -6 -7 -8 -7 -8 -8 -7 -8 -7
5 4 4 2 1 1 1 -1 -1 -2 -3 -4 -4 -5 -5 -6 -7 -8 -8 -8 -9 -9 -9 -9 -10 -10 -10 -9 -8 -8 -7 -7 -8 -7 -7 -7 -8 -7 -9 -9 -9 -9 -9 -9
3 3 2 1 0 -0 -0 -1 -2 -3 -4 -4 -5 -6 -6 -7 -8 -8 -8 -9 -10 -10 -10 -10 -10 -11 -11 -10 -9 -9 -9 -9 -8 -8 -8 -9 -9 -9 -9 -9 -10 -10 -10 -11
2 2 1 1 0 -1 -1 -2 -4 -4 -5 -5 -6 -6 -7 -8 -8 -9 -9 -9 -10 -11 -11 -12 -12 -12 -11 -11 -10 -10 -10 -10 -10 -10 -10 -10 -10 -10 -10 -10 -10 -11 -11 -11
3 2 2 0 -1 -2 -3 -3 -4 -4 -5 -6 -6 -7 -7 -8 -9 -10 -10 -11 -11 -12 -12 -13 -13 -12 -11 -11 -11 -11 -11 -10 -11 -10 -10 -11 -10 -10 -11 -11 -11 -12 -12 -12
1 0 -0 -0 -2 -2 -3 -3 -3 -4 -5 -6 -7 -7 -8 -9 -10 -11 -12 -12 -12 -13 -14 -13 -13 -13 -12 -12 -12 -12 -11 -11 -11 -11 -11 -11 -11 -11 -11 -11 -12 -12 -13 -14
0 -0 -1 -1 -2 -2 -2 -3 -3 -5 -6 -7 -8 -8 -9 -10 -11 -12 -12 -12 -12 -13 -13 -13 -13 -13 -13 -13 -12 -13 -12 -12 -12 -12 -12 -12 -11 -11 -12 -12 -12 -13 -14 -15
2 2 1 0 -1 -2 -3 -4 -5 -6 -7 -8 -9 -10 -10 -10 -11 -12 -12 -12 -12 -13 -13 -13 -14 -14 -13 -13 -13 -13 -13 -13 -13 -13 -13 -13 -13 -13 -13 -13 -13 -13 -14 -14
1 -0 -1 -1 -2 -3 -4 -6 -7 -8 -8 -9 -9 -10 -10 -11 -11 -12 -12 -12 -12 -13 -13 -14 -14 -14 -14 -14 -14 -14 -14 -14 -14 -14 -14 -14 -14 -14 -14 -13 -13 -14 -15 -15
-2 -2 -3 -4 -4 -5 -6 -8 -8 -9 -9 -9 -10 -11 -11 -11 -11 -12 -12 -12 -12 -13 -13 -14 -14 -14 -14 -14 -14 -15 -15 -15 -15 -15 -15 -15 -14 -14 -15 -15 -15 -15 -15 -16
-4 -4 -5 -6 -7 -6 -6 -7 -8 -9 -10 -10 -10 -10 -10 -11 -11 -11 -12 -11 -12 -13 -13 -13 -14 -14 -14 -14 -15 -15 -15 -15 -16 -16 -16 -16 -16 -15 -15 -15 -16 -16 -16 -16
-6 -7 -7 -8 -8 -9 -8 -8 -8 -9 -10 -11 -11 -11 -11 -11 -11 -11 -11 -11 -12 -12 -13 -13 -13 -14 -14 -14 -14 -15 -15 -16 -16 -16 -16 -16 -16 -16 -16 -16 -16 -16 -17 -17
-7 -7 -8 -8 -9 -9 -9 -9 -9 -9 -10 -10 -10 -10 -10 -10 -11 -11 -10 -11 -11 -12 -12 -13 -13 -13 -14 -14 -14 -14 -15 -15 -15 -16 -16 -16 -16 -17 -17 -17 -17 -17 -17 -18
-8 -8 -8 -9 -9 -10 -12 -10 -10 -10 -9 -9 -9 -9 -10 -10 -10 -10 -10 -11 -11 -12 -12 -12 -13 -13 -13 -14 -14 -14 -14 -15 -15 -15 -16 -16 -16 -16 -17 -17 -17 -17 -17 -18
-8 -9 -9 -10 -11 -10 -9 -9 -10 -10 -10 -10 -9 -9 -9 -10 -10 -10 -11 -11 -11 -12 -12 -12 -12 -13 -13 -13 -14 -14 -14 -14 -15 -15 -15 -16 -16 -16 -16 -17 -17 -17 -17 -17
-10 -10 -10 -9 -8 -9 -9 -10 -10 -10 -10 -9 -8 -9 -9 -9 -10 -10 -11 -11 -12 -12 -12 -12 -12 -13 -13 -13 -14 -14 -14 -14 -15 -15 -15 -16 -16 -16 -16 -17 -17 -17 -17 -18
-10 -9 -10 -10 -9 -9 -9 -9 -9 -9 -8 -8 -8 -9 -9 -10 -10 -10 -11 -11 -11 -12 -12 -12 -12 -13 -13 -14 -14 -14 -15 -15 -15 -15 -15 -16 -16 -16 -16 -17 -17 -17 -17 -18